Terminal Aerodrome Forecast
Issued by NWS Medford, OR

Home | Current Version | Previous Version | Text Only | Print | Product List | Glossary On
Versions: 1 2 3 4 5 6 7 8 9 10 11 12
000
FTUS46 KMFR 291700
TAFMFR
TAF
KMFR 291733Z 2918/3018 VRB03KT P6SM FEW120
     FM292200 31007KT P6SM FEW060 SCT100
     FM300500 VRB03KT P6SM SKC=

USA.gov is the U.S. government's official web portal to all federal, state and local government web resources and services.